Weather Roundup
Issued by NWS Springfield, MO

Home | Current Version | Previous Version | Text Only | Print | Product List | Glossary On
Versions: 1 2 3 4 5 6 7 8 9 10 11 12 13 14 15 16 17 18 19 20 21 22 23 24 25 26 27 28 29 30 31 32 33 34 35 36 37 38 39 40 41 42 43 44 45 46 47 48 49 50
000
NZUS99 KSGF 170707
HRRSGF

HOURLY WEATHER
NATIONAL WEATHER SERVICE SPRINGFIELD MO
100 AM CST TUE JAN 17 2017

......SGF CWA......

CITY           SKY/WX    TMP DP  RH WIND       PRES   REMARKS
SPRINGFIELD    CLOUDY    42  35  76 W12       29.98S
JOPLIN         CLOUDY    41  37  86 MISG      30.01F
WEST PLAINS    CLEAR     43  39  86 W10       29.98R
ROLLA          CLOUDY    42  37  82 W17G25    29.93R
OSAGE BEACH    CLOUDY    42  36  79 W7        29.98S
BRANSON        CLEAR     39  36  87 W3        30.01R

......SURROUNDING SGF CWA......

CITY           SKY/WX    TMP DP  RH WIND       PRES   REMARKS
CHANUTE        CLOUDY    38  34  85 W10       30.02S WCI  31
PARSONS        CLOUDY    38  35  89 W9        30.04R WCI  31
EMPORIA        CLOUDY    34  34 100 W8        30.01R FOG     WCI  27
GROVE OK       CLOUDY    43  36  75 W6        30.04F
ROGERS AR      CLOUDY    39  35  86 W9        30.02S WCI  33
SILOAM SPRINGS PTCLDY    36  32  87 W6        30.03S WCI  31
HARRISON AR    CLEAR     41  37  86 CALM      30.01R
NEAR YELLVILLE CLEAR     45  36  70 W10       29.99R

......KANSAS AND MISSOURI......

CITY           SKY/WX    TMP DP  RH WIND       PRES   REMARKS
KANSAS CTY INT DRZL/FOG  34  33  96 NW10      29.94S VSB 1/2 WCI  26
DOWNTOWN KC    CLOUDY    37  35  92 W10       29.97R WCI  30
COLUMBIA       CLOUDY    41  38  89 W16       29.95R
SEDALIA        CLOUDY    41  39  93 W9        29.96S FOG
ST JOSEPH      CLOUDY    34  34 100 W8        29.97R WCI  27
ST LOUIS       MOCLDY    51  45  79 W15G22    29.89R
SPIRIT OF STL  CLOUDY    49  46  90 W7        29.90R
KIRKSVILLE     CLOUDY    41  41 100 W15       29.87S
WICHITA        DRIZZLE   35  34  96 NW9       30.05S WCI  28
TOPEKA         CLOUDY    35  32  88 W6        29.98S WCI  30
OLATHE         CLOUDY    34  34 100 W7        29.96R WCI  28

......TENNESSEE......

CITY           SKY/WX    TMP DP  RH WIND       PRES   REMARKS
MEMPHIS        LGT RAIN  66  63  90 SW13G29   29.99S
NASHVILLE      CLOUDY    66  54  65 S15       30.01F

......ARKANSAS.......

CITY           SKY/WX    TMP DP  RH WIND       PRES   REMARKS
FAYETTEVILLE   CLEAR     38  35  89 W7        30.03R WCI  33
FT SMITH       CLEAR     40  36  86 W7        30.06R
LITTLE ROCK    CLOUDY    54  51  90 NW10      30.02R

......OKLAHOMA.......

CITY           SKY/WX    TMP DP  RH WIND       PRES   REMARKS
TULSA          CLOUDY    38  35  89 W7        30.07R WCI  33
PONCA CITY     CLOUDY    38  33  82 W8        30.07S WCI  32
MCALESTER      PTCLDY    40  33  76 CALM      30.08S
OKLAHOMA CITY  PTCLDY    38  33  82 NW12      30.10R WCI  30

......IOWA............

CITY           SKY/WX    TMP DP  RH WIND       PRES   REMARKS
DES MOINES     DRZL/FOG  34  33  96 NW9       29.89R VSB 1/4 WCI  27
QUAD CITIES    CLOUDY    36  35  96 CALM      29.80S

......ILLINOIS........

CITY           SKY/WX    TMP DP  RH WIND       PRES   REMARKS
QUINCY         CLOUDY    45  44  97 W13       29.86R
CHICAGO        DRIZZLE   37  37 100 NE9       29.76F FOG     WCI  30



USA.gov is the U.S. government's official web portal to all federal, state and local government web resources and services.